Port Lavaca, TX

12:23 PM CST on November 20, 2017 (GMT -0600)
Port Lavaca

Weather History for KPKV - December, 2013

Change the Weather History Date:

Friday, December 13, 2013

  Actual Average (KVCT) Record (KVCT)
Temperature  
Mean Temperature 52 °F -  
Max Temperature 62 °F 66 °F 85 °F (1921)
Min Temperature 42 °F 45 °F 25 °F (1989)
Degree Days  
Heating Degree Days 13    
Growing Degree Days 2 (Base 50)    
Moisture  
Dew Point 47 °F    
Average Humidity 81    
Maximum Humidity 88    
Minimum Humidity 74    
Precipitation  
Precipitation 0.00 in - - ()
Sea Level Pressure  
Sea Level Pressure 30.07 in    
Wind  
Wind Speed 4 mph (NNE)    
Max Wind Speed 13 mph    
Max Gust Speed -    
Visibility 10 miles    
Events      
Averages and records for this station are not official NWS values.
T = Trace of Precipitation, MM = Missing Value Source: NWS Daily Summary

Daily Weather History Graph

Daily Weather History Graph

Search for Another Location

Airport or City:

Trip Planner

Search our weather history database for the weather conditions in past years. The results will help you decide how hot, cold, wet, or windy it might be!

Date:

Astronomy

Dec. 13, 2013 Rise Set
Actual Time 7:10 AM CST 5:31 PM CST
Civil Twilight 6:44 AM CST 5:57 PM CST
Nautical Twilight 6:15 AM CST 6:26 PM CST
Astronomical Twilight 5:46 AM CST 6:55 PM CST
Moon 3:04 PM CST (12/13) 3:46 AM CST (12/13)
Length of Visible Light 11h 12m
Length of Day
10h 20m
Waxing Gibbous, 88% of the Moon is Illuminated
Dec 13
Waxing Gibbous
Dec 17
Full
Dec 25
Last Quarter
Jan 1
New
Jan 7
First Quarter

Hourly Weather History & Observations

Time (CST) Temp. Windchill Dew Point Humidity Pressure Visibility Wind Dir Wind Speed Gust Speed Precip Events Conditions
12:15 AM 42.8 °F 41.1 °F 37.4 °F 81% 30.33 in 10.0 mi North 3.5 mph - N/A   Clear
12:35 AM 42.3 °F 38.6 °F 38.3 °F 86% 30.33 in 10.0 mi North 5.8 mph - N/A   Clear
12:55 AM 42.8 °F 41.1 °F 38.3 °F 84% 30.33 in 10.0 mi North 3.5 mph - N/A   Clear
1:15 AM 43.2 °F - 37.9 °F 82% 30.31 in 10.0 mi Calm Calm - N/A   Clear
1:35 AM 43.2 °F 40.5 °F 38.7 °F 84% 30.29 in 10.0 mi NE 4.6 mph - N/A   Clear
1:55 AM 43.9 °F 41.3 °F 39.2 °F 84% 30.27 in 10.0 mi NE 4.6 mph - N/A   Clear
2:15 AM 43.7 °F 42.1 °F 39.2 °F 84% 30.27 in 10.0 mi North 3.5 mph - N/A   Clear
2:35 AM 43.7 °F 42.1 °F 39.9 °F 87% 30.25 in 10.0 mi NNE 3.5 mph - N/A   Clear
2:55 AM 43.7 °F - 40.1 °F 87% 30.24 in 10.0 mi Calm Calm - N/A   Clear
3:15 AM 43.2 °F 40.5 °F 39.4 °F 86% 30.24 in 10.0 mi North 4.6 mph - N/A   Clear
3:35 AM 42.4 °F 39.6 °F 39.2 °F 88% 30.24 in 10.0 mi NNW 4.6 mph - N/A   Clear
3:55 AM 43.0 °F 39.5 °F 39.0 °F 86% 30.23 in 10.0 mi North 5.8 mph - N/A   Clear
4:15 AM 43.3 °F 39.9 °F 39.2 °F 85% 30.21 in 10.0 mi NNE 5.8 mph - N/A   Clear
4:35 AM 43.7 °F 40.3 °F 39.2 °F 84% 30.22 in 10.0 mi North 5.8 mph - N/A   Scattered Clouds
4:55 AM 44.1 °F 41.5 °F 39.2 °F 83% 30.21 in 10.0 mi North 4.6 mph - N/A   Scattered Clouds
5:15 AM 44.2 °F 41.0 °F 39.4 °F 83% 30.20 in 10.0 mi North 5.8 mph - N/A   Clear
5:35 AM 44.6 °F 42.2 °F 39.4 °F 82% 30.19 in 10.0 mi NNE 4.6 mph - N/A   Clear
5:55 AM 44.2 °F 41.0 °F 39.4 °F 83% 30.19 in 10.0 mi North 5.8 mph - N/A   Clear
6:15 AM 44.2 °F 41.8 °F 39.4 °F 83% 30.19 in 10.0 mi North 4.6 mph - N/A   Clear
6:35 AM 44.8 °F 41.6 °F 39.7 °F 82% 30.20 in 10.0 mi North 5.8 mph - N/A   Mostly Cloudy
6:55 AM 44.8 °F 42.4 °F 39.6 °F 82% 30.18 in 10.0 mi NNE 4.6 mph - N/A   Overcast
7:15 AM 45.1 °F 42.0 °F 40.1 °F 82% 30.18 in 10.0 mi North 5.8 mph - N/A   Overcast
7:35 AM 45.5 °F 42.5 °F 40.1 °F 81% 30.17 in 10.0 mi NNE 5.8 mph - N/A   Overcast
7:55 AM 46.0 °F 43.1 °F 40.6 °F 81% 30.18 in 10.0 mi North 5.8 mph - N/A   Overcast
8:15 AM 46.8 °F - 41.0 °F 80% 30.18 in 10.0 mi NNE 4.6 mph - N/A   Overcast
8:35 AM 47.5 °F - 41.4 °F 79% 30.17 in 10.0 mi NE 5.8 mph - N/A   Overcast
8:55 AM 48.4 °F - 42.1 °F 79% 30.15 in 10.0 mi ENE 8.1 mph - N/A   Mostly Cloudy
9:15 AM 48.2 °F - 42.4 °F 80% 30.13 in 10.0 mi ENE 5.8 mph - N/A   Mostly Cloudy
9:35 AM 49.8 °F - 43.7 °F 79% 30.13 in 10.0 mi East 4.6 mph - N/A   Overcast
9:55 AM 52.5 °F - 45.3 °F 76% 30.12 in 10.0 mi East 4.6 mph - N/A   Overcast
10:15 AM 54.0 °F - 46.8 °F 77% 30.13 in 10.0 mi NNE 3.5 mph - N/A   Overcast
10:35 AM 55.0 °F - 47.7 °F 76% 30.10 in 10.0 mi Calm Calm - N/A   Overcast
10:55 AM 57.0 °F - 48.9 °F 74% 30.10 in 10.0 mi Calm Calm - N/A   Mostly Cloudy
11:15 AM 57.7 °F - 49.6 °F 74% 30.09 in 10.0 mi East 3.5 mph - N/A   Overcast
11:35 AM 58.3 °F - 50.2 °F 74% 30.08 in 10.0 mi East 3.5 mph - N/A   Overcast
11:55 AM 58.6 °F - 51.4 °F 77% 30.06 in 10.0 mi SE 3.5 mph - N/A   Overcast
12:15 PM 58.1 °F - 51.1 °F 77% 30.04 in 10.0 mi ESE 5.8 mph - N/A   Overcast
12:35 PM 58.1 °F - 51.4 °F 78% 30.02 in 10.0 mi ESE 5.8 mph - N/A   Overcast
12:55 PM 59.2 °F - 52.7 °F 79% 29.98 in 10.0 mi ESE 9.2 mph - N/A   Mostly Cloudy
1:15 PM 60.6 °F - 53.2 °F 77% 29.97 in 10.0 mi ESE 4.6 mph - N/A   Scattered Clouds
1:35 PM 60.1 °F - 53.8 °F 80% 29.97 in 10.0 mi East 3.5 mph - N/A   Mostly Cloudy
1:55 PM 60.1 °F - 53.6 °F 79% 29.96 in 10.0 mi ENE 3.5 mph - N/A   Overcast
2:15 PM 61.0 °F - 54.5 °F 79% 29.95 in 10.0 mi Calm Calm - N/A   Overcast
2:35 PM 61.0 °F - 54.9 °F 80% 29.95 in 10.0 mi Calm Calm - N/A   Overcast
2:55 PM 61.7 °F - 55.0 °F 79% 29.94 in 10.0 mi Calm Calm - N/A   Overcast
3:15 PM 61.7 °F - 55.2 °F 79% 29.93 in 10.0 mi Calm Calm - N/A   Overcast
3:35 PM 62.1 °F - 55.9 °F 80% 29.92 in 10.0 mi NNE 5.8 mph - N/A   Overcast
3:55 PM 62.6 °F - 57.0 °F 82% 29.91 in 10.0 mi NE 5.8 mph - N/A   Overcast
4:15 PM 62.4 °F - 55.2 °F 77% 29.90 in 10.0 mi ENE 4.6 mph - N/A   Overcast
4:35 PM 61.7 °F - 54.3 °F 77% 29.90 in 10.0 mi ENE 4.6 mph - N/A   Overcast
4:55 PM 61.0 °F - 54.1 °F 78% 29.88 in 10.0 mi East 4.6 mph - N/A   Overcast
5:15 PM 60.8 °F - 54.5 °F 80% 29.88 in 10.0 mi East 4.6 mph - N/A   Mostly Cloudy
5:35 PM 60.8 °F - 55.4 °F 82% 29.87 in 10.0 mi ESE 4.6 mph - N/A   Overcast
5:55 PM 60.8 °F - 55.4 °F 82% 29.88 in 10.0 mi SSE 3.5 mph - N/A   Overcast
6:15 PM 60.4 °F - 55.8 °F 85% 29.88 in 10.0 mi SE 4.6 mph - N/A   Overcast
6:35 PM 60.1 °F - 56.3 °F 87% 29.88 in 10.0 mi Calm Calm - N/A   Overcast
6:55 PM 60.3 °F - 56.5 °F 87% 29.90 in 10.0 mi NW 4.6 mph - N/A   Overcast
7:15 PM 60.1 °F - 55.9 °F 86% 29.90 in 10.0 mi Calm Calm - N/A   Overcast
7:35 PM 60.1 °F - 55.8 °F 86% 29.93 in 10.0 mi NW 9.2 mph - N/A   Overcast
7:55 PM 60.3 °F - 55.0 °F 83% 29.95 in 10.0 mi NW 12.7 mph - N/A   Overcast
8:15 PM 59.4 °F - 53.2 °F 80% 29.95 in 10.0 mi NW 9.2 mph - N/A   Overcast
8:35 PM 59.0 °F - 52.9 °F 80% 29.95 in 10.0 mi NW 6.9 mph - N/A   Overcast
8:55 PM 58.1 °F - 51.4 °F 78% 29.95 in 10.0 mi NW 10.4 mph - N/A   Overcast
9:15 PM 57.6 °F - 50.9 °F 78% 29.96 in 10.0 mi NW 6.9 mph - N/A   Overcast
9:35 PM 55.9 °F - 50.2 °F 81% 29.94 in 10.0 mi NNW 4.6 mph - N/A   Scattered Clouds
9:55 PM 54.5 °F - 50.0 °F 85% 29.95 in 10.0 mi NNW 4.6 mph - N/A   Scattered Clouds
10:15 PM 55.6 °F - 50.0 °F 81% 29.96 in 10.0 mi NW 6.9 mph - N/A   Overcast
10:35 PM 55.4 °F - 50.0 °F 82% 29.96 in 10.0 mi NW 6.9 mph - N/A   Overcast
10:55 PM 55.0 °F - 50.0 °F 83% 29.95 in 10.0 mi NNW 5.8 mph - N/A   Overcast
11:15 PM 54.7 °F - 49.5 °F 83% 29.94 in 10.0 mi NNW 6.9 mph - N/A   Overcast
11:35 PM 54.5 °F - 49.5 °F 83% 29.93 in 10.0 mi Calm Calm - N/A   Overcast
11:55 PM 54.0 °F - 49.1 °F 84% 29.93 in 10.0 mi Calm Calm - N/A   Mostly Cloudy